| time (UTC) | temp C | wind direction | speed KPH | gust KPH | rain 1hr cm | rain 24hr cm | rain mn cm | humidity % | barometer mb |
| 20260505121541 | 13 | 323 | 14.5 | 22.5 | 0.00 | 0.64 | 0.28 | 91 | 1010.3 |
| 20260505120034 | 12 | 356 | 12.9 | 19.3 | 0.00 | 0.64 | 0.28 | 90 | 1010.5 |
| 20260505114538 | 12 | 356 | 14.5 | 22.5 | 0.00 | 0.64 | 0.28 | 87 | 1010.4 |
| 20260505113036 | 13 | 349 | 12.9 | 20.9 | 0.00 | 0.61 | 0.28 | 86 | 1010.4 |
| 20260505111535 | 13 | 334 | 12.9 | 22.5 | 0.00 | 0.61 | 0.28 | 86 | 1010.1 |
| 20260505101543 | 13 | 359 | 16.1 | 27.4 | 0.00 | 0.61 | 0.28 | 88 | 1010.0 |
| 20260505100036 | 13 | 355 | 14.5 | 22.5 | 0.03 | 0.61 | 0.28 | 89 | 1010.0 |
| 20260505094534 | 13 | 349 | 8.0 | 19.3 | 0.05 | 0.61 | 0.28 | 91 | 1010.0 |
| 20260505093039 | 13 | 34 | 9.7 | 16.1 | 0.05 | 0.61 | 0.28 | 92 | 1010.0 |
| 20260505091536 | 12 | 10 | 8.0 | 14.5 | 0.05 | 0.61 | 0.28 | 91 | 1010.1 |
| 20260505090043 | 12 | 34 | 6.4 | 11.3 | 0.00 | 0.56 | 0.23 | 90 | 1010.1 |
| 20260505084548 | 13 | 341 | 6.4 | 9.7 | 0.00 | 0.56 | 0.20 | 90 | 1009.8 |
| 20260505083043 | 12 | 14 | 3.2 | 4.8 | 0.00 | 0.56 | 0.20 | 91 | 1009.8 |
| 20260505081538 | 12 | 0 | 0.0 | 3.2 | 0.00 | 0.56 | 0.20 | 93 | 1009.8 |
| 20260505080046 | 12 | 0 | 0.0 | 1.6 | 0.00 | 0.56 | 0.20 | 92 | 1009.7 |
| 20260505074537 | 12 | 152 | 0.0 | 3.2 | 0.00 | 0.56 | 0.20 | 93 | 1009.6 |
| 20260505073038 | 12 | 0 | 0.0 | 3.2 | 0.00 | 0.56 | 0.20 | 94 | 1009.8 |
| 20260505071545 | 12 | 205 | 0.0 | 8.0 | 0.00 | 0.56 | 0.20 | 95 | 1009.9 |
| 20260505070035 | 12 | 188 | 0.0 | 4.8 | 0.00 | 0.56 | 0.20 | 95 | 1010.0 |
| 20260505064540 | 11 | 0 | 0.0 | 4.8 | 0.00 | 0.56 | 0.20 | 95 | 1010.2 |
| 20260505063040 | 11 | 0 | 0.0 | 3.2 | 0.00 | 0.56 | 0.20 | 95 | 1010.5 |
| 20260505061536 | 11 | 176 | 0.0 | 3.2 | 0.03 | 0.56 | 0.20 | 95 | 1010.7 |
| 20260505060037 | 11 | 170 | 0.0 | 3.2 | 0.03 | 0.56 | 0.20 | 94 | 1011.2 |
| 20260505054538 | 11 | 0 | 0.0 | 0.0 | 0.00 | 0.53 | 0.18 | 94 | 1011.4 |
| 20260505053036 | 11 | 0 | 0.0 | 0.0 | 0.03 | 0.53 | 0.18 | 94 | 1011.3 |
| 20260505051537 | 11 | 0 | 0.0 | 1.6 | 0.05 | 0.51 | 0.18 | 94 | 1011.5 |
| 20260505041538 | 11 | 0 | 0.0 | 0.0 | 0.08 | 0.46 | 0.10 | 93 | 1011.6 |
| 20260505040039 | 11 | 0 | 0.0 | 0.0 | 0.05 | 0.41 | 0.08 | 92 | 1011.7 |
| 20260505034536 | 11 | 0 | 0.0 | 1.6 | 0.00 | 0.36 | 0.00 | 92 | 1011.8 |
| 20260505033039 | 11 | 0 | 0.0 | 1.6 | 0.00 | 0.36 | 0.00 | 91 | 1011.9 |
| 20260505031552 | 11 | 15 | 1.6 | 6.4 | 0.00 | 0.36 | 0.00 | 91 | 1012.0 |
| 20260505030041 | 11 | 19 | 1.6 | 6.4 | 0.00 | 0.36 | 0.00 | 91 | 1011.9 |
| 20260505024547 | 11 | 322 | 1.6 | 9.7 | 0.00 | 0.36 | 0.00 | 91 | 1011.8 |
| 20260505023041 | 11 | 352 | 9.7 | 17.7 | 0.00 | 0.36 | 0.00 | 91 | 1011.6 |
| 20260505021536 | 11 | 23 | 16.1 | 25.7 | 0.00 | 0.36 | 0.00 | 92 | 1011.5 |
| 20260505020035 | 11 | 32 | 12.9 | 22.5 | 0.00 | 0.36 | 0.00 | 91 | 1011.7 |
| 20260505014557 | 12 | 5 | 16.1 | 24.1 | 0.00 | 0.36 | 0.00 | 89 | 1011.6 |
| 20260505013038 | 11 | 8 | 14.5 | 24.1 | 0.00 | 0.36 | 0.00 | 88 | 1011.9 |
| 20260505011547 | 11 | 356 | 11.3 | 17.7 | 0.00 | 0.36 | 0.00 | 93 | 1011.9 |
| 20260505010037 | 10 | 160 | 0.0 | 4.8 | 0.00 | 0.36 | 0.00 | 95 | 1011.8 |
| 20260505004536 | 10 | 0 | 0.0 | 0.0 | 0.00 | 0.33 | 0.00 | 95 | 1011.8 |
| 20260505003034 | 10 | 0 | 0.0 | 0.0 | 0.00 | 0.33 | 0.00 | 95 | 1012.1 |
| 20260505001542 | 10 | 0 | 0.0 | 0.0 | 0.00 | 0.33 | 0.00 | 94 | 1012.2 |
| 20260505000037 | 10 | 0 | 0.0 | 1.6 | 0.00 | 0.33 | 0.00 | 94 | 1012.2 |
| 20260504234536 | 10 | 0 | 0.0 | 1.6 | 0.00 | 0.33 | 0.00 | 94 | 1012.3 |
| 20260504233040 | 10 | 0 | 0.0 | 0.0 | 0.00 | 0.33 | 0.00 | 94 | 1012.5 |
| 20260504231535 | 10 | 0 | 0.0 | 1.6 | 0.00 | 0.33 | 0.00 | 94 | 1012.6 |
| 20260504230035 | 10 | 0 | 0.0 | 0.0 | 0.00 | 0.33 | 0.00 | 94 | 1012.7 |
| 20260504224537 | 10 | 0 | 0.0 | 0.0 | 0.00 | 0.33 | 0.00 | 94 | 1012.9 |
| 20260504223034 | 10 | 0 | 0.0 | 1.6 | 0.00 | 0.33 | 0.00 | 93 | 1013.1 |
| 20260504221533 | 11 | 0 | 0.0 | 3.2 | 0.00 | 0.33 | 0.00 | 93 | 1013.0 |
| 20260504220035 | 11 | 347 | 3.2 | 6.4 | 0.00 | 0.33 | 0.00 | 94 | 1013.3 |
| 20260504214532 | 11 | 319 | 3.2 | 6.4 | 0.00 | 0.33 | 0.33 | 94 | 1013.3 |
| 20260504213034 | 11 | 309 | 1.6 | 3.2 | 0.00 | 0.33 | 0.33 | 94 | 1013.5 |
| 20260504211537 | 11 | 0 | 0.0 | 4.8 | 0.00 | 0.33 | 0.33 | 94 | 1013.3 |
| 20260504210053 | 11 | 0 | 0.0 | 0.0 | 0.00 | 0.33 | 0.33 | 93 | 1013.3 |
| 20260504204552 | 11 | 0 | 0.0 | 0.0 | 0.00 | 0.33 | 0.33 | 93 | 1013.5 |
| 20260504203038 | 10 | 0 | 0.0 | 0.0 | 0.00 | 0.33 | 0.33 | 93 | 1013.9 |
| 20260504201539 | 11 | 0 | 0.0 | 0.0 | 0.00 | 0.33 | 0.33 | 92 | 1014.1 |
| 20260504200038 | 11 | 0 | 0.0 | 0.0 | 0.00 | 0.33 | 0.33 | 92 | 1014.3 |
| 20260504194534 | 11 | 0 | 0.0 | 0.0 | 0.00 | 0.33 | 0.33 | 92 | 1014.3 |
| 20260504193035 | 11 | 0 | 0.0 | 3.2 | 0.00 | 0.33 | 0.33 | 92 | 1014.4 |
| 20260504191534 | 11 | 4 | 1.6 | 4.8 | 0.00 | 0.33 | 0.33 | 91 | 1014.5 |
| 20260504190032 | 12 | 348 | 0.0 | 4.8 | 0.00 | 0.33 | 0.33 | 91 | 1014.4 |
| 20260504184533 | 12 | 342 | 1.6 | 6.4 | 0.00 | 0.33 | 0.33 | 91 | 1014.6 |
| 20260504183037 | 12 | 342 | 1.6 | 4.8 | 0.00 | 0.33 | 0.33 | 90 | 1014.6 |
| 20260504181533 | 12 | 359 | 1.6 | 6.4 | 0.00 | 0.33 | 0.33 | 91 | 1014.6 |
| 20260504180036 | 12 | 352 | 1.6 | 4.8 | 0.00 | 0.33 | 0.33 | 91 | 1014.9 |
| 20260504174537 | 12 | 0 | 0.0 | 0.0 | 0.00 | 0.33 | 0.33 | 90 | 1014.9 |
| 20260504173034 | 12 | 310 | 1.6 | 6.4 | 0.00 | 0.33 | 0.33 | 90 | 1015.0 |
| 20260504171539 | 12 | 283 | 0.0 | 9.7 | 0.00 | 0.33 | 0.33 | 90 | 1015.0 |